Theta_e
328 326 325 328 322 317 321 320 314 318 326 322 311 310 314 313 312 314 313 314 321 327 333 339 341 340 341 343 341 341 345 347 348 349 348 348 348 348 349 353 357 357 357 359 358 355 357 358 358 358 357 359 361 363 367 369 370 371 369 366 366 366 367
327 327 325 327 325 323 319 313 316 324 326 324 317 311 312 314 313 314 313 312 315 317 322 335 342 340 340 342 341 341 343 345 347 349 350 350 350 350 352 356 358 357 357 360 359 355 354 357 357 358 358 359 361 363 366 369 371 372 371 368 366 366 367
326 329 325 322 324 327 322 318 324 323 314 313 314 311 312 314 314 314 312 313 314 313 318 329 337 340 341 343 343 342 341 342 344 349 353 354 353 352 353 355 357 357 357 359 358 354 353 354 357 360 360 360 361 363 365 368 370 372 371 369 368 367 367
327 326 322 316 317 324 324 323 325 323 316 313 313 313 313 313 313 313 313 313 313 317 326 332 338 343 344 343 345 344 340 340 345 348 352 355 353 353 352 351 355 356 354 356 357 355 352 353 357 360 360 360 359 362 364 367 370 372 372 371 369 368 368
324 320 321 319 318 320 319 316 316 317 318 318 316 315 314 313 313 312 314 313 313 324 336 338 342 344 343 344 346 347 344 339 342 348 349 351 353 355 354 351 350 352 354 355 356 356 353 353 356 359 360 359 358 359 362 366 369 372 373 373 370 368 368
315 318 326 327 325 324 321 317 315 315 317 316 313 313 313 313 312 311 314 313 314 327 340 342 344 343 340 343 344 344 342 340 343 346 346 350 354 355 356 353 349 350 356 357 356 357 355 353 355 357 359 359 357 358 360 364 369 371 372 374 371 368 369
321 326 329 328 326 328 326 323 321 321 320 314 308 309 311 312 312 312 313 311 316 333 348 346 346 346 339 341 345 343 341 341 342 343 346 351 355 354 353 349 348 352 356 358 358 359 358 356 357 358 358 359 358 358 360 363 368 371 372 373 372 369 369
326 328 329 329 328 328 324 322 324 323 320 318 315 316 316 312 310 311 312 310 316 335 357 352 347 348 341 339 344 342 342 343 339 343 354 357 357 356 351 347 351 354 353 359 366 367 363 360 359 359 361 361 360 359 360 362 367 370 371 372 373 370 369
319 320 321 322 323 324 322 323 325 324 323 323 321 320 319 314 311 312 312 310 315 333 358 354 342 343 339 336 339 339 344 347 343 351 361 362 363 362 356 355 359 357 356 364 374 374 367 362 361 363 363 363 363 362 361 362 365 369 369 369 372 372 370
314 313 313 314 317 321 322 323 324 325 324 322 318 314 312 312 314 315 312 311 319 334 350 346 339 341 341 342 341 338 343 347 352 365 367 366 371 371 367 368 367 364 366 373 379 378 371 364 363 365 365 365 365 363 361 361 363 366 366 365 369 372 372
315 316 319 323 323 319 316 319 322 323 324 324 320 312 308 311 314 314 317 320 322 329 341 343 340 340 341 346 343 342 352 353 353 369 376 373 374 373 372 374 374 374 381 382 381 379 374 366 362 365 366 364 363 362 361 360 361 363 364 363 366 372 373
322 326 328 329 326 320 317 318 319 321 324 324 319 311 312 319 313 309 323 335 323 323 338 343 342 344 347 347 342 341 353 355 347 362 378 374 372 375 376 378 379 381 385 388 385 380 376 370 364 365 365 363 362 360 359 358 358 360 362 361 364 371 372
325 330 329 329 328 325 324 322 320 321 322 320 317 315 319 323 314 311 328 341 330 328 336 338 341 348 346 345 344 340 344 347 345 362 378 372 368 372 374 377 381 381 384 391 390 382 379 374 368 366 365 364 362 361 358 357 356 357 359 360 362 369 372
324 328 328 330 329 325 324 324 324 323 323 322 320 320 323 324 321 321 329 336 334 333 335 334 337 342 342 343 344 341 340 341 343 357 368 365 363 368 372 377 381 380 381 387 389 386 383 379 372 368 367 366 364 363 359 357 355 356 358 359 362 367 371
321 326 329 329 328 326 322 322 326 327 325 323 322 322 323 322 323 325 325 327 330 332 335 336 337 340 343 345 344 343 346 345 342 344 347 349 354 360 367 375 378 379 379 382 386 387 384 380 374 369 368 367 365 364 361 358 357 356 358 361 362 366 371
317 324 327 325 327 327 320 319 324 325 323 322 322 324 325 322 321 324 321 319 325 332 335 335 336 338 340 340 340 343 349 347 343 342 340 344 352 358 366 374 376 377 376 377 382 383 379 377 375 369 370 370 367 365 362 359 357 356 360 363 363 366 371
316 324 325 324 324 320 315 319 324 327 327 326 325 327 329 326 324 321 317 319 329 337 336 334 334 335 337 341 340 342 350 356 355 350 344 343 347 354 367 377 377 374 370 370 376 379 375 374 373 371 371 371 369 366 363 362 360 357 362 365 365 367 372
315 321 324 323 320 315 317 325 329 329 329 328 326 327 329 329 329 326 324 328 335 337 334 333 335 335 338 345 346 344 348 355 357 352 348 348 345 345 357 370 375 375 373 372 375 377 375 372 371 370 370 370 369 367 365 365 362 359 364 368 367 370 374
315 320 322 318 315 319 326 331 333 330 329 329 329 330 331 330 330 331 332 331 333 335 334 332 336 340 338 339 343 344 341 343 345 344 344 350 351 350 352 359 372 380 380 378 378 378 375 371 369 369 370 369 369 367 367 367 365 362 366 370 370 372 375
319 319 319 318 320 326 330 334 333 331 331 331 327 324 328 330 330 336 342 339 335 335 333 330 333 338 335 333 340 343 338 336 338 336 335 340 343 345 348 354 373 387 383 377 378 379 374 371 369 370 370 369 368 367 367 368 366 366 370 371 372 375 376
323 318 316 321 323 324 328 334 336 335 334 332 328 324 328 335 336 339 344 343 340 338 338 337 336 337 335 334 336 336 332 332 335 333 332 334 334 338 343 345 361 380 379 375 376 377 374 372 370 370 370 370 368 367 366 366 367 371 374 374 374 376 376
324 320 318 323 321 320 329 337 339 340 335 334 338 331 331 344 349 344 343 345 344 343 345 346 346 345 344 339 335 333 330 330 332 330 330 333 333 336 342 339 345 367 376 376 375 376 375 372 370 371 371 371 370 369 368 367 368 371 375 376 376 377 376
323 321 320 323 321 325 339 344 339 339 335 336 339 327 326 346 356 348 346 347 345 345 348 350 350 348 345 340 336 334 331 331 331 331 334 334 331 334 338 336 347 367 376 375 375 375 374 373 371 372 372 372 371 370 370 369 367 371 375 377 377 376 374
324 324 322 322 323 333 347 343 335 337 336 337 333 321 323 346 355 347 347 349 347 349 352 351 349 349 347 345 343 337 332 331 332 335 342 343 341 340 337 345 366 377 376 376 376 375 373 372 372 372 372 372 370 370 371 370 370 374 376 376 375 373 371
324 324 323 324 329 339 346 338 335 338 336 332 327 323 334 350 348 343 347 347 346 350 353 352 353 352 350 348 344 338 333 333 335 339 345 350 351 341 333 355 376 379 376 377 376 372 372 372 371 371 372 372 372 372 373 372 373 375 376 374 373 370 369
324 325 327 326 330 340 343 336 336 337 333 329 328 335 346 348 343 344 348 346 348 351 351 353 354 352 348 347 344 338 333 336 342 347 348 351 356 351 350 366 376 374 374 376 373 370 371 371 370 372 372 372 373 374 374 374 375 375 374 373 371 369 367
324 325 327 324 326 338 341 335 336 338 335 335 341 346 346 343 343 347 347 347 349 350 349 352 353 351 350 350 348 346 343 341 347 353 355 357 362 365 367 371 371 369 372 373 369 368 371 371 371 373 373 374 374 374 375 375 374 374 372 370 368 367 365
322 318 322 326 330 337 336 335 339 342 342 343 346 344 343 342 342 343 345 346 345 343 345 347 349 351 352 349 346 349 349 343 346 356 361 359 360 364 368 368 367 367 371 372 369 368 370 371 372 372 373 373 373 374 374 374 371 371 370 368 366 365 363
328 325 329 335 339 338 336 339 343 343 341 341 340 340 341 340 340 343 347 347 345 345 346 347 348 353 356 355 354 354 355 354 355 362 365 364 360 362 366 368 369 369 371 374 373 372 372 372 372 373 372 372 373 373 372 370 369 368 367 367 365 364 362
340 341 341 340 340 338 336 338 338 337 337 338 338 340 341 339 339 344 348 349 349 350 352 352 353 353 353 354 355 356 358 359 358 359 361 358 358 362 365 366 368 369 371 373 373 374 375 373 372 373 371 371 372 371 369 368 367 366 366 364 364 362 361
342 346 347 342 340 340 337 336 336 335 336 337 339 342 343 342 342 344 346 347 348 348 350 351 351 349 348 348 350 351 353 353 351 354 358 354 351 351 351 353 359 365 369 372 374 374 374 372 372 372 371 370 370 369 368 367 366 365 364 363 362 361 360
345 346 346 342 339 339 336 336 338 338 338 338 340 341 342 342 341 340 340 340 340 342 345 347 347 347 347 346 346 347 347 347 348 351 353 352 351 350 348 347 350 355 360 362 364 366 365 364 367 368 369 368 367 366 366 365 364 363 362 360 360 359 357
347 346 344 343 342 341 338 337 337 338 339 339 338 338 338 338 337 337 337 336 335 336 338 340 344 346 346 346 347 346 344 343 346 348 350 350 349 349 349 350 350 352 355 355 356 359 360 360 362 364 364 363 363 363 362 361 360 360 358 357 358 356 355
346 345 343 344 344 343 341 338 336 337 337 337 337 336 335 334 334 335 334 333 333 333 333 334 338 342 345 346 347 347 345 344 344 346 348 349 349 348 347 347 348 351 354 355 356 359 360 359 359 360 360 360 360 360 360 359 358 357 355 356 355 354 353
342 341 341 342 342 342 341 338 337 336 335 334 334 334 332 332 332 331 331 330 331 331 330 330 332 336 339 343 347 349 348 345 345 346 346 346 348 349 348 349 351 353 355 357 358 358 357 357 357 357 358 358 359 359 359 359 358 356 356 355 353 352 352
340 340 340 340 339 338 336 335 335 335 335 334 334 333 331 330 329 328 328 327 328 328 328 328 329 331 333 336 339 343 345 346 346 346 345 345 349 352 354 356 357 358 358 359 358 357 357 357 356 357 357 357 358 358 358 358 358 357 356 354 352 352 351
339 339 338 339 337 334 333 332 332 332 332 332 333 333 332 330 329 328 328 326 325 325 325 325 326 326 328 330 332 334 337 340 341 343 345 347 349 350 352 355 358 359 359 358 357 356 356 356 356 356 357 356 356 356 356 356 356 355 354 352 350 349 349
Wind_Speed
20 18 16 18 16 11 9 13 15 13 13 13 10 11 12 12 11 9 9 10 9 9 10 12 13 15 17 16 14 15 14 15 16 16 17 16 15 15 15 14 14 16 15 16 21 24 25 28 32 34 34 35 35 34 34 35 34 34 35 35 35 34 33
22 19 17 19 20 16 10 10 13 12 14 15 10 8 9 10 11 9 10 13 11 10 8 11 14 15 15 17 17 16 15 15 14 14 17 16 15 15 15 15 14 15 16 17 22 28 30 31 34 36 36 36 36 35 35 35 35 34 35 36 36 35 34
19 19 17 16 19 23 19 13 12 12 12 13 10 8 9 11 11 9 12 14 13 12 8 10 15 15 13 15 17 17 17 16 13 16 20 18 17 14 13 13 13 14 16 17 22 28 32 33 34 35 36 36 35 34 34 35 35 36 35 35 36 36 35
17 16 14 13 14 20 22 18 14 12 10 10 10 9 8 9 11 9 12 13 11 10 10 12 17 17 15 14 14 15 18 17 14 16 20 19 16 14 13 13 13 15 18 20 25 30 32 33 33 34 35 36 36 35 35 35 35 36 35 35 36 36 36
16 12 13 15 14 14 16 16 15 12 9 9 10 10 9 10 10 8 10 11 8 8 9 10 13 15 16 14 12 11 14 17 13 14 19 18 15 14 14 14 14 16 17 20 25 30 31 31 32 34 36 37 37 36 35 36 36 36 36 36 37 37 36
13 13 15 18 17 14 13 13 14 14 11 10 11 11 11 11 10 9 9 9 8 8 7 6 9 12 15 15 14 13 14 18 14 10 15 17 16 14 13 13 14 14 12 15 22 26 28 30 32 35 36 36 37 37 37 37 36 37 37 37 38 38 36
12 16 18 19 20 19 16 14 15 16 14 11 10 9 9 10 12 12 11 10 8 7 6 5 5 10 14 14 14 14 15 17 16 13 13 18 18 16 15 14 13 11 10 12 17 22 26 29 31 34 35 35 37 38 37 37 37 37 38 37 37 37 36
12 15 17 18 20 19 16 14 15 16 17 16 13 10 9 10 13 14 11 10 9 6 3 2 2 8 14 14 13 14 14 15 18 14 12 17 17 15 15 15 13 13 13 13 14 17 21 24 27 31 33 33 35 36 37 37 37 38 38 36 35 36 37
10 12 13 15 17 16 12 12 15 18 22 24 19 13 9 10 13 15 11 8 10 7 2 1 4 8 13 12 11 13 12 10 11 9 11 14 14 12 14 14 14 15 14 13 13 13 16 21 24 28 31 31 32 35 36 37 37 38 38 35 34 35 36
11 11 10 10 12 12 10 13 18 20 24 26 20 13 10 9 10 13 12 9 9 10 9 8 8 8 9 8 10 12 11 7 5 7 12 13 12 12 13 13 14 15 13 13 14 13 15 21 24 26 30 31 31 33 35 36 36 37 37 35 34 34 35
11 10 10 11 13 13 14 18 21 21 23 24 19 13 12 10 8 9 11 9 9 10 12 14 14 12 9 8 8 8 6 4 3 4 10 12 12 13 13 12 12 12 11 12 15 14 15 21 25 27 29 32 32 31 34 35 35 36 36 35 35 34 34
18 15 14 15 17 17 18 20 22 22 22 23 21 17 15 12 9 10 10 9 11 12 11 11 13 13 9 8 8 7 3 1 4 2 8 12 12 12 11 10 11 12 11 11 13 14 15 19 25 26 28 32 32 31 33 35 35 35 35 35 35 35 34
23 22 20 18 16 16 17 18 20 21 22 24 22 19 19 16 12 11 10 8 10 13 17 15 10 8 6 8 10 9 6 5 7 3 9 12 12 13 12 11 12 12 11 10 11 13 14 16 21 24 26 30 31 31 32 34 34 34 34 35 35 35 35
22 24 24 23 19 17 18 18 19 20 22 23 23 20 22 23 19 16 14 11 12 13 16 18 14 9 7 6 8 11 12 12 12 7 9 12 12 13 10 9 10 10 11 10 10 12 13 13 18 21 23 27 30 30 31 33 34 34 34 36 35 34 34
16 23 25 24 23 20 19 18 19 21 22 23 22 20 21 21 19 19 18 15 13 12 12 15 15 12 10 8 9 11 11 13 14 13 13 14 13 14 11 9 10 11 11 11 11 12 13 14 18 21 23 25 27 29 29 32 34 34 33 35 35 34 34
12 17 22 24 23 21 21 20 20 23 23 18 17 17 18 17 15 16 17 15 12 9 10 12 12 13 14 13 13 12 8 10 14 14 15 14 10 13 15 14 13 13 14 13 13 14 14 15 19 22 23 24 25 28 30 32 34 33 32 34 35 33 32
10 14 17 18 18 18 17 17 19 22 20 16 15 17 19 19 16 12 12 11 8 8 10 12 12 14 15 14 13 11 8 8 9 10 13 13 10 10 13 15 15 15 14 14 14 15 15 17 22 25 26 25 26 29 29 30 32 31 30 32 34 32 31
10 14 15 13 14 14 12 12 17 21 20 20 20 18 18 19 16 13 13 12 9 8 9 11 12 12 12 9 8 10 9 6 6 7 9 11 11 10 9 12 15 15 13 13 14 16 20 24 27 27 27 27 28 28 27 27 30 30 28 30 31 30 30
9 11 12 14 14 12 10 10 13 17 20 22 21 20 20 16 11 12 15 16 14 11 9 10 10 10 13 12 8 9 11 11 11 12 11 9 8 8 7 8 12 15 14 13 14 17 22 26 26 26 27 26 27 28 27 27 29 28 26 28 29 29 28
8 9 12 13 10 9 12 12 10 13 18 20 19 19 20 15 8 6 7 7 9 11 13 15 12 11 14 14 10 9 12 13 15 16 16 13 12 11 10 9 9 14 15 15 17 20 23 25 26 26 27 28 27 28 28 27 27 26 24 27 28 27 27
8 10 11 9 8 10 12 10 6 5 10 13 11 9 10 8 5 6 9 11 11 8 5 8 8 8 12 12 10 13 17 18 17 18 18 16 16 15 13 13 10 15 20 21 22 24 24 26 27 28 28 29 29 29 29 28 26 24 23 25 26 26 26
9 10 10 9 11 10 6 4 2 2 3 2 1 2 3 3 9 9 7 8 11 12 11 9 7 6 7 9 10 15 20 20 18 19 19 19 20 18 14 14 14 15 22 24 25 27 26 26 28 29 29 30 29 27 28 29 27 24 22 23 24 23 24
9 11 10 9 10 6 1 1 2 4 4 4 4 1 5 4 11 10 7 7 8 9 10 10 9 8 6 6 6 10 14 15 16 18 19 21 23 19 16 17 16 16 22 25 26 26 25 25 28 30 30 30 29 26 26 29 27 23 22 23 23 22 22
8 9 9 8 7 3 4 4 3 5 4 4 1 5 3 6 10 9 7 7 7 8 9 8 6 6 6 6 9 10 8 11 16 16 12 12 15 15 15 13 9 17 22 23 22 22 23 25 29 31 30 29 26 24 25 26 25 23 23 25 25 24 24
9 9 8 7 4 3 8 8 5 4 2 1 3 5 1 6 7 8 8 8 8 8 8 7 5 6 7 8 13 16 15 15 15 11 4 4 5 12 16 11 13 17 17 18 19 20 24 27 28 29 29 26 23 23 23 22 22 24 27 28 27 27 26
9 8 7 6 5 4 7 9 7 6 5 2 2 2 3 5 7 9 10 10 11 10 9 8 7 9 11 12 13 16 19 17 13 9 4 4 8 12 12 17 21 15 13 16 19 20 23 26 27 29 28 24 22 23 21 20 23 28 30 29 28 27 26
8 8 8 8 7 6 10 11 8 5 3 2 2 3 5 7 10 12 11 12 14 14 13 12 12 12 12 13 13 14 18 15 8 8 7 1 6 5 1 13 18 15 12 12 15 19 22 25 27 28 26 23 22 22 21 23 27 30 30 29 28 26 26
9 10 9 6 3 6 10 8 5 5 4 4 5 5 6 8 9 9 8 10 12 13 14 16 17 15 12 13 12 12 16 14 4 4 8 4 4 6 5 7 11 13 11 11 14 18 22 24 25 27 27 25 22 21 23 27 30 30 30 30 28 26 25
5 4 3 1 3 6 8 6 8 9 8 7 7 7 6 6 7 7 7 8 9 10 12 14 16 15 13 12 13 13 13 10 5 8 12 11 6 2 6 8 10 11 10 10 14 16 18 22 24 25 27 27 22 22 26 30 31 30 30 29 27 25 24
7 7 5 5 5 5 9 9 9 9 8 8 9 9 8 6 7 7 8 9 10 11 11 10 10 11 13 14 14 14 14 12 11 11 12 14 15 11 6 3 4 12 14 13 14 14 16 21 23 23 26 27 24 24 28 29 29 29 28 27 26 24 24
4 5 6 9 9 4 6 9 8 9 10 10 9 9 9 9 10 10 10 11 12 14 14 12 10 11 14 14 13 12 13 12 12 10 9 11 15 16 16 19 16 4 7 10 11 12 14 19 22 23 25 26 25 26 26 27 27 27 27 26 24 23 22
3 6 6 11 14 12 10 9 8 10 11 12 12 11 11 12 13 14 15 15 14 14 15 14 12 12 13 13 13 12 11 10 10 9 7 11 12 12 12 14 16 12 6 5 7 9 10 15 20 24 24 25 25 25 25 25 24 24 23 23 21 20 21
6 9 7 8 12 14 13 11 10 10 11 13 14 14 14 15 15 15 16 16 15 16 16 15 14 13 12 13 13 13 11 10 10 10 7 10 11 10 10 8 6 4 7 8 9 10 12 15 20 23 25 25 25 24 23 23 23 23 23 22 20 20 20
5 5 5 4 6 9 10 11 12 13 12 13 15 15 15 16 15 15 16 16 16 18 18 17 16 14 12 13 13 11 10 8 9 9 6 9 10 10 8 2 3 3 10 14 14 14 16 19 20 22 24 24 22 22 22 22 23 24 23 21 19 18 18
3 4 3 4 6 8 8 9 12 12 11 13 15 15 15 15 15 15 17 16 16 17 17 18 18 17 14 12 11 9 8 7 7 7 4 6 6 7 9 8 6 5 11 15 16 16 17 19 20 21 22 21 20 20 20 19 21 22 21 20 18 17 17
2 4 4 4 8 10 9 10 12 11 10 12 14 14 13 14 14 15 16 16 15 15 15 16 17 18 17 15 13 12 10 7 4 3 2 6 6 9 13 11 9 11 13 16 17 17 17 19 20 20 21 20 19 18 18 17 18 18 18 17 15 15 18
1 5 6 5 8 11 11 10 11 11 11 11 12 12 12 11 12 13 14 14 14 14 15 14 15 18 19 17 17 16 14 12 12 11 9 11 12 15 17 17 16 15 15 17 18 18 19 20 20 20 20 19 18 17 16 16 15 14 13 13 15 17 21
Wind_Direction
213 209 206 207 222 231 210 209 220 221 218 222 239 248 243 242 244 238 230 233 228 207 198 210 218 220 216 207 207 210 202 199 195 180 180 186 186 190 193 192 189 189 195 194 190 189 187 185 187 191 193 191 189 187 185 186 187 188 188 188 189 192 193
209 204 207 206 217 234 231 213 211 215 222 225 234 240 233 240 244 236 235 237 237 230 202 193 209 220 219 205 201 207 204 204 199 174 171 183 188 188 188 191 189 189 197 193 187 191 193 190 189 191 192 192 190 189 186 185 186 189 189 189 191 193 194
201 194 208 211 211 225 237 236 212 207 218 218 222 229 221 231 237 230 237 237 234 239 219 185 200 208 205 197 199 210 211 208 198 170 168 181 189 187 185 189 188 191 200 194 187 193 196 193 191 190 191 191 190 189 187 187 188 190 190 190 192 193 194
192 185 203 215 207 213 229 241 231 217 220 218 219 226 221 232 239 231 235 237 231 238 226 196 197 199 195 191 195 212 221 217 200 172 168 178 182 179 182 188 190 194 202 200 193 194 197 195 191 190 191 192 192 191 188 188 189 190 191 191 192 194 195
193 192 199 209 209 204 213 229 234 223 211 214 224 228 217 223 241 236 232 237 232 239 241 217 200 191 187 189 193 204 225 232 219 178 168 171 171 175 180 184 190 195 198 200 197 196 198 196 191 191 193 194 194 193 190 189 190 190 192 193 194 195 194
202 206 200 202 209 213 211 215 228 228 214 208 218 223 215 214 231 236 239 246 235 232 245 231 204 186 179 190 200 199 215 233 237 201 168 162 164 176 181 181 189 192 188 194 198 195 196 198 195 194 194 193 194 194 192 191 191 192 193 194 195 195 193
225 212 198 197 204 215 223 217 217 226 227 222 218 217 215 218 225 228 237 249 240 229 241 249 214 176 176 195 204 202 208 217 230 225 178 161 168 178 179 178 182 183 184 197 199 192 194 199 196 193 194 193 193 193 192 191 191 192 194 195 194 194 193
245 222 198 196 202 209 225 225 213 218 226 229 231 222 212 221 227 223 224 234 237 232 224 274 266 177 182 197 202 205 210 207 217 220 175 161 173 176 173 174 176 180 186 197 197 189 193 198 195 191 193 194 193 192 192 192 192 193 195 195 192 191 193
235 224 201 197 204 204 215 225 219 217 220 225 233 233 221 224 228 226 225 224 226 228 194 191 250 205 191 202 213 214 219 218 210 186 146 156 169 168 172 174 174 181 188 193 193 186 189 194 193 190 191 193 194 193 193 193 192 194 195 194 190 190 192
212 216 211 198 201 205 208 221 228 226 221 221 227 233 234 230 222 222 231 237 220 206 192 194 220 218 188 203 233 221 210 225 215 142 136 153 159 161 172 173 172 180 187 190 188 183 186 191 191 189 189 192 195 194 194 194 193 195 195 194 190 188 190
222 222 224 204 196 206 209 210 221 230 227 222 221 227 235 233 231 228 232 251 249 218 200 197 205 214 198 193 233 233 195 195 226 151 140 153 158 163 172 169 168 177 183 185 184 182 185 189 191 191 189 192 195 195 195 195 195 195 194 193 191 188 190
235 237 236 218 201 209 218 210 212 224 230 228 222 222 230 231 236 238 226 234 250 251 248 225 205 212 207 173 193 238 251 252 266 224 143 157 161 158 164 165 167 178 183 181 182 183 185 188 191 192 190 192 194 195 196 196 196 195 193 193 191 189 191
229 236 245 242 220 212 221 218 212 215 225 234 232 224 226 230 235 237 224 213 227 247 259 251 226 213 204 163 170 202 217 238 261 233 146 161 161 152 161 171 173 181 184 178 178 183 185 187 190 192 192 192 193 196 197 197 197 196 193 192 191 189 191
219 226 238 248 244 227 220 220 221 217 215 225 237 235 228 230 236 238 234 230 228 235 248 254 257 255 233 197 183 192 191 205 234 228 176 175 165 154 164 177 180 185 184 179 180 181 183 185 188 191 192 192 194 196 196 195 197 197 192 190 191 190 190
225 221 223 234 246 249 240 230 230 235 226 213 220 235 236 234 236 233 233 238 238 233 234 242 250 255 254 248 232 218 198 197 217 229 221 206 174 159 173 185 185 191 189 186 183 180 184 187 188 191 193 193 195 197 197 196 196 196 191 188 190 190 190
240 227 218 218 229 243 250 243 234 240 241 221 210 222 232 240 246 235 229 232 233 230 233 234 234 238 246 248 245 243 230 210 214 219 224 223 190 170 180 185 186 190 191 190 186 184 187 187 187 191 191 191 195 199 199 198 196 196 191 187 188 189 188
239 237 228 220 221 228 236 238 236 238 241 236 230 223 217 223 238 245 242 241 235 223 227 233 233 234 237 237 239 247 244 229 230 225 218 222 218 198 184 178 182 189 190 190 189 185 184 186 189 191 189 189 194 200 201 198 196 196 191 186 186 185 184
233 236 236 235 233 231 228 226 233 240 240 235 236 237 227 217 218 228 236 242 248 240 235 241 244 246 251 245 229 239 251 251 259 258 234 218 219 222 203 181 180 184 187 188 187 185 186 188 191 190 189 190 193 197 200 198 197 197 190 183 182 180 178
231 229 229 233 231 233 242 237 228 237 247 246 244 248 247 238 233 240 237 232 232 233 241 255 259 262 270 270 247 233 247 254 254 257 253 238 228 234 236 210 182 177 183 185 183 186 187 187 188 186 187 190 190 193 197 197 199 199 187 176 177 175 172
226 220 220 230 238 241 249 249 236 231 239 244 246 248 249 250 269 311 314 284 255 233 224 227 231 237 248 260 260 241 242 251 254 253 252 251 252 247 245 243 201 174 179 184 182 185 184 181 182 183 185 188 189 191 194 195 197 197 182 171 171 170 167
222 229 223 232 250 246 239 241 247 250 243 237 237 251 261 270 309 3 7 345 328 321 278 236 235 239 235 237 238 234 237 243 248 254 256 255 257 254 246 248 227 183 179 184 181 178 177 178 180 182 183 185 187 189 191 192 192 188 175 168 168 166 166
209 226 229 232 234 228 220 215 178 39 339 279 107 333 293 10 31 24 6 343 339 347 349 346 349 331 271 242 225 220 225 231 236 245 250 250 254 256 245 242 238 202 182 179 174 171 173 179 181 180 180 182 183 185 187 186 185 180 170 165 164 163 164
204 219 224 225 229 219 149 179 130 77 24 28 61 280 259 39 39 25 13 358 345 345 347 351 356 344 308 280 254 224 217 226 238 240 238 237 239 243 244 242 231 198 175 167 166 168 172 177 179 177 177 180 181 182 182 181 180 175 165 161 161 162 162
212 222 228 227 238 215 152 156 104 74 39 17 43 224 246 23 24 19 22 9 353 353 351 344 332 316 309 306 302 289 261 247 251 248 245 241 229 225 243 248 199 164 160 157 161 168 172 176 178 174 174 178 181 180 177 175 172 166 160 158 159 161 162
214 223 232 234 243 183 162 167 149 123 104 3 238 220 280 9 359 6 9 355 355 360 346 333 320 306 306 307 306 302 291 275 270 269 286 340 300 251 237 204 146 144 152 153 160 170 173 175 175 171 172 175 174 172 172 170 164 157 156 156 158 160 162
213 224 233 234 232 199 181 178 166 165 175 178 219 253 11 8 4 9 1 352 355 350 336 326 315 307 311 313 306 295 286 291 310 319 320 25 350 295 234 164 144 149 155 155 164 171 171 173 171 168 169 168 163 163 165 161 155 151 151 153 155 155 155
210 218 221 233 232 190 182 186 175 169 178 120 43 7 21 29 26 20 9 4 1 348 338 330 317 311 314 314 311 300 288 289 324 332 300 26 59 14 151 143 145 150 150 158 170 169 167 168 166 163 162 157 154 158 156 151 149 147 146 147 149 149 149
214 217 218 238 243 168 173 180 144 110 100 76 50 34 38 35 29 25 16 10 3 349 337 327 316 310 305 299 304 307 291 277 273 342 322 323 116 127 129 133 144 148 151 162 165 161 162 162 158 157 155 150 148 150 147 144 144 142 142 144 146 148 149
203 221 229 170 123 149 153 130 103 103 94 73 63 62 58 44 32 30 23 11 2 349 337 325 314 313 319 322 327 331 320 312 357 23 1 348 341 170 151 142 144 150 154 152 146 146 149 147 145 148 148 145 142 140 139 140 140 140 142 144 144 145 145
93 52 32 64 90 139 143 128 124 122 100 78 73 68 56 47 41 36 30 24 18 11 7 357 337 338 354 360 358 359 359 3 19 29 23 13 8 12 17 359 171 157 148 139 135 133 131 129 131 136 138 136 133 133 135 138 139 140 140 140 141 143 143
114 64 38 46 47 70 125 122 111 95 86 83 83 81 73 64 57 52 47 43 37 31 30 27 15 7 8 5 1 6 11 10 10 21 44 44 35 34 22 355 341 357 124 126 126 122 121 124 125 124 125 126 128 130 133 135 135 136 137 137 137 138 139
101 100 78 61 57 58 72 93 94 80 75 75 74 79 86 81 71 62 54 49 44 39 35 32 25 18 13 7 2 4 9 10 359 359 41 64 57 58 54 19 354 352 24 67 95 103 112 122 123 120 121 125 127 128 130 133 133 131 130 130 128 128 132
98 88 69 61 65 61 59 73 90 86 80 77 72 71 74 74 71 66 60 54 49 44 39 34 29 21 11 8 12 10 5 3 350 340 15 70 71 62 57 39 10 34 78 86 92 95 100 111 117 119 121 122 123 124 127 130 127 121 121 123 123 124 130
138 92 59 50 72 72 58 60 78 88 91 87 79 73 69 66 66 67 65 59 51 47 42 34 32 30 19 13 20 18 357 335 315 315 359 59 68 64 63 39 255 150 109 104 103 101 104 109 112 113 113 114 117 119 122 125 125 125 127 127 128 133 138
98 97 90 73 85 93 77 61 69 80 84 85 83 79 75 71 67 65 65 59 50 47 43 35 33 35 29 23 28 26 6 340 311 308 9 66 89 118 134 165 188 134 101 97 97 99 103 106 106 104 105 109 112 114 119 125 128 132 135 137 144 151 149
54 95 88 74 90 98 88 71 68 66 63 71 76 74 74 75 71 68 68 62 53 50 45 36 32 32 28 28 32 31 29 27 355 323 85 104 118 120 111 104 92 79 73 74 78 81 86 90 92 94 98 102 106 111 118 125 130 138 148 153 154 150 140
124 120 106 95 101 104 98 82 72 67 63 64 66 61 58 62 67 71 74 69 60 55 50 40 33 31 28 26 26 24 23 19 9 10 37 56 57 65 72 72 70 70 70 70 71 73 76 80 85 90 94 98 102 107 115 124 133 146 152 138 124 120 123